Terminal Aerodrome Forecast
Issued by NWS

Home | Current Version | Previous Version | Text Only | Print | Product List | Glossary On
Versions: 1 2 3 4 5 6 7 8 9 10 11 12 13 14 15 16 17 18 19 20 21 22
000
FTUS41 KPBZ 150500 CCA
TAFFKL
TAF COR
KFKL 150549Z 1506/1606 VRB03KT 1SM BR SCT003
     FM150800 VRB03KT 1/2SM FG SCT003
      TEMPO 1508/1512 1/4SM FG BKN001
     FM151400 VRB03KT P6SM SCT250
      AMD LTD TO CLD VIS AND WIND=

USA.gov is the U.S. government's official web portal to all federal, state and local government web resources and services.